Regional Weather Roundup
Issued by NWS Jackson, KY

Home | Current Version | Previous Version | Text Only | Print | Product List | Glossary Off
Versions: 1 2 3 4 5 6 7 8 9 10 11 12 13 14 15 16 17 18 19 20 21 22 23 24 25 26 27 28 29 30 31 32 33 34 35 36 37 38 39 40 41 42 43 44 45 46 47 48 49 50

782
ASUS43 KJKL 170310
RWRJKL

EAST KENTUCKY HOURLY WEATHER ROUNDUP
NATIONAL WEATHER SERVICE JACKSON KY
1100 PM EDT WED AUG 16 2017

NOTE: "FAIR" INDICATES FEW OR NO CLOUDS BELOW 12,000 FEET WITH
NO SIGNIFICANT WEATHER AND/OR OBSTRUCTIONS TO VISIBILITY.

* THESE REPORTS ARE NOT UNDER NWS QUALITY CONTROL AND MAY NOT
  REPORT WEATHER SUCH AS PRECIPITATION AND FOG.

KYZ079-080-083-085-087-088-110-112-115-119-120-170400
...EASTERN KENTUCKY...

CITY           SKY/WX    TMP DP  RH WIND       PRES   REMARKS
JACKSON        CLEAR     74  71  91 CALM      30.07S
LONDON         CLOUDY    76  73  91 S3        30.06S
SOMERSET*      CLOUDY    75  75 100 CALM      30.06S
MONTICELLO*    CLOUDY    73  72  96 W9        30.07R
WILLIAMSBURG*  CLOUDY    75  75 100 CALM      30.07R
MIDDLESBORO*   CLEAR     74  74 100 CALM      30.09S
HARLAN APT*    CLOUDY    70  70 100 CALM      30.11S VSB 3/4
PIKE CO APT*     N/A     72  72 100 CALM      30.08S
BIG SANDY APT* PTCLDY    74  74 100 SW5       30.07R
MOREHEAD APT*  CLEAR     75  72  88 S3        30.06R
$$

KYZ035-036-041-042-044-050-067-078-099-170400
...CENTRAL KENTUCKY...

CITY           SKY/WX    TMP DP  RH WIND       PRES   REMARKS
MT STERLING*   CLEAR     73  72  94 CALM      30.06R
FLEMING/MASON* CLOUDY    75  71  86 S5        30.05R
DANVILLE*      CLOUDY    73  72  94 SW3       30.05S
LEXINGTON      CLOUDY    76  70  82 SW5       30.04R
FRANKFORT      CLEAR     78  70  76 SW6       30.01R
LOUISVILLE     PTCLDY    81  70  69 S8        29.98S
LEBANON*         N/A     75  73  94 CALM      30.03S
GLASGOW*       PTCLDY    76  76 100 CALM      30.01S
BOWLING GREEN  PTCLDY    78  77  96 CALM      30.00S
$$

KYZ091>093-OHZ055-061-077-WVZ005-015-034-035-042-170400
...SOUTHERN OHIO/WEST VIRGINIA...

CITY           SKY/WX    TMP DP  RH WIND       PRES   REMARKS
COVINGTON      CLOUDY    79  74  84 S5        29.99F
COLUMBUS       MOCLDY    78  71  79 SE8       30.00S
DAYTON         MOCLDY    78  69  73 S9        30.01S
WILMINGTON     CLOUDY    76  73  91 SW3       30.02R
HUNTINGTON     CLEAR     75  70  84 E3        30.03R
CHARLESTON     CLEAR     74  71  91 CALM      30.05R
PINEVILLE*     CLEAR     70  68  96 MISG      30.15S FOG
BECKLEY        CLOUDY    71  66  84 CALM      30.14S
BLUEFIELD      CLEAR     70  65  84 CALM      30.18R
LOGAN CO APT*  MOCLDY    72  68  88 CALM      30.09R
$$

VAZ002-007-008-TNZ017-027-036-066-071-170400
...SOUTHWEST VIRGINIA/EAST TENNESSEE...

CITY           SKY/WX    TMP DP  RH WIND       PRES   REMARKS
WISE*          PTCLDY    68  68 100 S5        30.18R
JONESVILLE*      N/A     72  72 100 CALM      30.12S
ABINGDON*      MOCLDY    73  73 100 CALM      30.15R FOG
BRISTOL        PTCLDY    72  71  97 CALM      30.11R
MORRISTOWN*    CLEAR     75  73  94 CALM      30.09R
SEVIERVILLE*   CLEAR     75  72  88 CALM      30.08R
KNOXVILLE      PTCLDY    76  71  85 CALM      30.07R
OAK RIDGE      CLEAR     78  73  84 CALM      30.08R
CROSSVILLE     CLOUDY    74  70  87 SE3       30.13R
NASHVILLE      CLOUDY    77  74  90 S7        30.02S
$$

...KEY TO REMARKS...
VSB - VISIBILITY IN MILES
WCI - WIND CHILL INDEX
HX  - HEAT INDEX

$$




USA.gov is the U.S. government's official web portal to all federal, state and local government web resources and services.